Location: Roland
(31.1349°N, 85.4372°W)
Time: 04:21:56
(UTC+00:00)

Courier 1B - Pass Details

Date: 23 April 2021
Orbit: 962 x 1209 km, 28.3° (Epoch: 07 May)

Event Time Altitude Azimuth Distance (km) Brightness Sun altitude
Rises 21:51:07 0° 273° (W) 3,648 11.7 29.8°
Reaches altitude 10° 21:54:01 10° 264° (W) 2,689 11.5 29.2°
Maximum altitude 21:59:42 33° 202° (SSW) 1,548 9.2 27.9°
Drops below altitude 10° 22:05:26 10° 140° (SE) 2,711 9.6 26.7°
Sets 22:08:23 0° 131° (SE) 3,681 10.1 26.1°
